Regional Weather Roundup
Issued by NWS

Home | Current Version | Previous Version | Text Only | Print | Product List | Glossary On
Versions: 1 2 3 4 5 6 7 8 9 10 11 12 13 14 15 16 17 18 19 20 21 22 23 24 25 26 27 28 29 30 31 32 33 34 35 36 37 38 39 40 41 42 43 44 45 46 47 48 49 50
000
ASUS44 KLUB 280010
RWRTX
WEST TEXAS WEATHER ROUNDUP
NATIONAL WEATHER SERVICE LUBBOCK TX
700 PM CDT MON JUL 27 2015

NOTE: "FAIR" INDICATES FEW OR NO CLOUDS BELOW 12,000 FEET WITH NO
SIGNIFICANT WEATHER AND/OR OBSTRUCTIONS TO VISIBILITY.

TXZ004-006>008-010-012-014-016-OKZ002-280100-
TEXAS PANHANDLE/OKLAHOMA PANHANDLE

CITY           SKY/WX    TMP DP  RH WIND       PRES   REMARKS
AMARILLO       MOSUNNY   92  61  35 S22G28    29.92F
BORGER         SUNNY     94  64  37 S16G24    29.88S HX  95
CANADIAN       SUNNY     97  66  36 S18G25    29.83F HX 100
DALHART        SUNNY     96  59  29 S30G37    29.90F HX  95
DUMAS          MOSUNNY   92  63  37 S20G26    29.90F
GUYMON         PTSUNNY   96  64  34 S18G32    29.82F HX  98
HEREFORD       SUNNY     93  62  35 MISG      29.92F
PAMPA          SUNNY     92  61  35 S16G25    29.91S
PERRYTON       MOSUNNY   96  61  30 S15       29.86F HX  96
$$

TXZ026-029-035-045-048-280100-
SOUTHERN PANHANDLE/SOUTH PLAINS/ROLLING PLAINS

CITY           SKY/WX    TMP DP  RH WIND       PRES   REMARKS
CHILDRESS      SUNNY     96  64  34 SE13      29.83F HX  98
SEMINOLE       MOSUNNY   99  53  21 SE13      29.89S HX  96
LUBBOCK        MOSUNNY   95  61  32 SE16      29.91F HX  95
PLAINVIEW      SUNNY     91  72  52 SE14      29.92F HX  98
SNYDER         SUNNY     96  64  34 SE12      29.88F HX  98
$$

TXZ052-054-060>062-072-078-127-140-154-169-280100-
PERMIAN BASIN/CONCHO VALLEY/BIG COUNTRY/EDWARDS PLATEAU

CITY           SKY/WX    TMP DP  RH WIND       PRES   REMARKS
ABILENE        SUNNY     97  63  32 SE15      29.87F HX  98
BIG SPRING     SUNNY     98  58  26 SE12G17   29.88S HX  97
BRADY          SUNNY     99  64  32 SE13      29.86F HX 101
BROWNWOOD      MOSUNNY   95  64  36 E13       29.86S HX  97
JUNCTION       SUNNY     96  62  32 SE13G24   29.86F HX  97
MIDLAND        SUNNY    100  54  21 SE14      29.86F HX  98
ODESSA         MOSUNNY  101  54  20 SE22      29.87F HX  99
SAN ANGELO     MOSUNNY  100  58  24 SE8       29.83S HX  99
SONORA         SUNNY     97  59  28 SE10G18   29.90S HX  96
SWEETWATER     SUNNY     95  60  31 SE10      29.91S HX  95
WINK           CLOUDY    98  58  26 S17       29.83S HX  97
$$

TXZ055-058-074-075-080-082-280100-
FAR WEST/SOUTHWEST MOUNTAINS/TRANS PECOS

CITY           SKY/WX    TMP DP  RH WIND       PRES   REMARKS
ALPINE         CLOUDY    82  58  44 S7G16     30.07R
DRYDEN           N/A    100  58  24 SE13G22   29.82S HX  99
EL PASO        MOSUNNY   98  49  18 SW9       29.90F HX  95
FORT STOCKTON  LGT RAIN  97  61  30 SW7       29.86F HX  97
GUADALUPE PASS PTSUNNY   90  55  30 S8        30.08F
MARFA          CLOUDY    73  66  78 E6        30.05F
PECOS          PTSUNNY   94  57  29 S6        29.84S
PRESIDIO       FAIR     100  54  21 SE10      29.83R HX  97
$$

TXZ014-016-019-021>030-083-280100
TEXAS TECH WEST TEXAS MESONET/TEXAS PANHANDLE/NORTHERN SOUTH PLAINS

CITY           SKY/WX    TMP DP  RH WIND       PRES   REMARKS
ABERNATHY 5ENE   N/A     93  60  33 SE12      29.93F
AMARILLO 9NNE    N/A     93  64  37 S20       29.88F HX  95
AMARILLO 7SSE    N/A     91  63  39 SE16      29.93S
AMHERST 1NE      N/A     93  56  29 SE16      29.93S
BOOTLEG 11WNW    N/A     93  56  29 S20       29.97S
CANADIAN 6E      N/A     97  66  36 S15       29.83S HX 100
CAPROCK CYN SP   N/A     95  60  30 S10       29.88F HX  95
CHILDRESS 2NNE   N/A     98  62  30 SE15      29.83S HX  98
CLARENDON 2WSW   N/A     95  60  31 S13       29.88F HX  95
CLAUDE 12SW      N/A     92  63  38 S13       29.92F
DIMMITT 2NE      N/A     91  62  38 SE16      29.94S
FLOYDADA 2NNE    N/A     93  58  30 SE13      29.92S
FRIONA 2NE       N/A     92  57  30 SE22      29.94S
GOODLETT 3W      N/A     98  64  31 SE17      29.81F HX 100
HART 3N          N/A     91  63  39 SE12      29.94F
HEREFORD 2NW     N/A     92  58  32 SE15      29.92S
MCLEAN 1E        N/A     94  60  31 S16       29.88F
MEMPHIS 1NE      N/A     98  62  29 S9        29.83F HX  99
MULESHOE 2SSW    N/A     94  55  26 SE14      29.93S
OLTON 6S         N/A     93  56  28 SE16      29.93S
PALO DURO SP     N/A     93  63  36 S15       29.93S
PAMPA 2E         N/A     92  64  38 S14       29.90S
PLAINVIEW 1S     N/A     93  60  33 SE10      29.92F
SILVERTON 7ESE   N/A     92  61  34 S13       29.92S
TULIA 2ENE       N/A     92  63  38 SE15      29.93F
TURKEY 2WSW      N/A     98  60  28 S12       29.86S HX  98
UMBARGER 3NNE    N/A     92  63  38 S16       29.93F
$$

TXZ033>036-039>041-045>048-280100
TEXAS TECH WEST TEXAS MESONET/SOUTH PLAINS

CITY           SKY/WX    TMP DP  RH WIND       PRES   REMARKS
AIKEN 3WSW       N/A     92  64  39 SE9       29.94S
ANDREWS 2NE      N/A     99  50  19 SE10      29.88S HX  96
ANTON 6SSW       N/A     94  59  31 SE15      29.91F
BROWNFIELD 2S    N/A     95  55  26 SE13      29.90F
DENVR CTY 7WNW   N/A     94  48  20 SE9       29.91R
GAIL 2ESE        N/A     97  60  28 SE10      29.86S HX  97
LAMESA 2SE       N/A     98  57  25 SE14      29.89S HX  96
LEVELLAND 4S     N/A     94  51  22 SE13      29.92S
LUBBOCK 3WNW     N/A     93  60  32 SE12      29.92S
MORTON 1ENE      N/A     94  56  27 SE14      29.92F
ODONNELL 1N      N/A     95  55  26 SE13      29.90S
PLAINS 3N        N/A     93  55  27 SE16      29.92S
RALLS 1SE        N/A     94  60  31 SE13      29.92F
REESE CENTER     N/A     95  55  26 SE14      29.91F
SEAGRAVES 1SW    N/A     97  55  24 E13       29.89S HX  95
SEMINOLE 2NNE    N/A     97  53  22 SE16      29.88S HX  95
SLATON 2NE       N/A     94  58  29 SE14      29.91S
SNYDER 3E        N/A     96  62  31 SE10      29.87F HX  97
SUNDOWN 8SW      N/A     94  57  28 SE13      29.92S
TAHOKA 3NNE      N/A     95  61  32 SE14      29.90F HX  95
WOLFFORTH 6SSW   N/A     94  59  30 SE14      29.91F
$$

TXZ031-032-036>038-042>044-280100-
TEXAS TECH WEST TEXAS MESONET/ROLLING PLAINS

CITY           SKY/WX    TMP DP  RH WIND       PRES   REMARKS
ASPERMONT 3NE    N/A     99  61  28 SE13      29.84S HX  99
FLUVANNA 3WNW    N/A     95  59  30 E12       29.89S
GRAHAM 5SSW      N/A     95  57  27 SE14      29.89S
GUTHRIE 10WSW    N/A     99  62  30 SE14      29.84S HX 100
HASKELL 1NW      N/A     95  59  29 SE13      29.84S HX  95
JAYTON 1SSE      N/A     98  61  29 SE10      29.84F HX  99
KNOX CITY 3NW    N/A     99  59  26 SE13      29.83S HX  99
LK A HENRY 1NW   N/A     98  61  29 SE12      29.86S HX  98
NORTHFIELD 1S    N/A     98  63  30 S8        29.83F HX  99
ODELL 4ENE       N/A     98  66  35 SE16      29.83S HX 101
PADUCAH 10SW     N/A     98  62  29 SE13      29.84S HX  99
POST 1NE         N/A     96  60  30 SE9       29.88S HX  96
RRING SPRGS 3N   N/A     96  62  32 SE8       29.88S HX  96
SEYMOUR 3NW      N/A     96  62  32 SE13      29.83S HX  97
SPUR 1W          N/A     96  60  29 SE8       29.85F HX  95
WEINERT 2NNE     N/A     98  66  35 SE15      29.84S HX 101
WHITE RVR 6NE    N/A     97  60  29 SE10      29.89S HX  96
$$

TXZ052-054-060>062-072-078-127-140-154-169-280100-
TEXAS TECH WEST TEXAS MESONET/PERMIAN BASIN/
CONCHO VALLEY/BIG COUNTRY/EDWARDS PLATEAU

CITY           SKY/WX    TMP DP  RH WIND       PRES   REMARKS
COYANOSA 2N      N/A     95  57  28 S10       29.83R
JUNCTION 1SSW    N/A     96  64  35 SE10      29.87R HX  98
MERTZON 3NNE     N/A     99  61  28 S5        29.86R HX  99
SAN ANGELO 7NW   N/A    100  56  23 E10       29.84S HX  98
STRLNG CT 4WSW   N/A     98  59  27 SE9       29.87S HX  98
ST LAWRNCE 5SW   N/A     97  56  25 SE12      29.87S HX  95
SWEETWATR 11SW   N/A     95  65  36 E9        29.90F HX  97
WALL 1E          N/A     98  59  27 E13       29.85R HX  98
$$

TXZ055-058-074-075-080-082-280100-
TEXAS TECH WEST TEXAS MESONET/FAR WEST/SOUTHWEST MOUNTAINS/TRANS PECOS

CITY           SKY/WX    TMP DP  RH WIND       PRES   REMARKS
PRSMN GAP BBNP   N/A     90  61  37 SE13      29.88R
$$



USA.gov is the U.S. government's official web portal to all federal, state and local government web resources and services.